Home > Weather > Ulaanbaatar > Past weeks

Flag for Mongolia Weather for the Past 2 Weeks in Ulaanbaatar, Mongolia

Now
-26 °F

Clear.


Feels Like: -37 °F
Forecast: -22 / 1 °F
Wind: 3 mph from South

Location: Ulan-Bator

Current Time: Feb 13, 2016 at 4:59:49 AM

Latest Report: Feb 13, 2016 at 4:00 AM


Visibility: 10 mi

Pressure: 30.45 "Hg (25.33 "Hg at 1298m altitude)

Humidity: 75%

Dew point: -31 °F

Location of UlaanbaatarLocation

Historic Weather in Ulaanbaatar — Graph

°F

Ulaanbaatar Temperature Yesterday

Maximum temperature yesterday: 3 °F (at 1:00 PM)
Minimum temperature yesterday: -20 °F (at 10:30 PM)
Average temperature yesterday: -5 °F

High & Low Weather Summary for the Past Weeks

 TemperatureHumidityPressure
High27 °F (Feb 10, 4:30 PM)92% (Feb 11, 4:00 AM)30.54 "Hg (Feb 11, 4:00 AM)
Low-40 °F (Jan 29, 8:30 AM)50% (Feb 1, 2:30 PM)29.53 "Hg (Feb 10, 10:30 PM)
Average-8 °F71%30.18 "Hg
* Reported Jan 29 4:00 AM — Feb 13 4:00 AM, Ulaanbaatar, Weather by CustomWeather, © 2016

Note: Actual official high and low records may vary slightly from our data, if they occured in-between our weather recording intervals... More about our weather records

Advertising

Ulaanbaatar Weather History for the Previous 24 Hours

 ConditionsComfort  
Time TempWeatherWind HumidityBarometerVisibility
4:00 AM
Sat, Feb 13
-26 °FClear.3 mph75%30.45 "Hg10 mi
3:00 AM-22 °FClear.No wind68%30.45 "Hg10 mi
2:00 AM-24 °FClear.3 mph75%30.45 "Hg10 mi
1:00 AM-22 °FClear.3 mph68%30.45 "Hg10 mi
12:00 AM-24 °FClear.3 mph68%30.45 "Hg10 mi
11:30 PM
Fri, Feb 12
-18 °FClear.No wind56%30.45 "Hg10 mi
11:00 PM-13 °FClear.1 mph69%30.45 "Hg10 mi
10:30 PM-20 °FClear.1 mph68%30.45 "Hg10 mi
10:00 PM-18 °FClear.3 mph69%30.45 "Hg10 mi
9:30 PM-11 °FClear.1 mph63%30.45 "Hg10 mi
9:00 PM-11 °FClear.No wind63%30.45 "Hg10 mi
8:30 PM-9 °FClear.No wind64%30.45 "Hg10 mi
8:00 PM-6 °FClear.1 mph64%30.42 "Hg10 mi
7:30 PM-8 °FPassing clouds.1 mph64%30.42 "HgN/A
7:00 PM-4 °FScattered clouds.3 mph65%30.42 "HgN/A
6:30 PM-2 °FScattered clouds.3 mph59%30.39 "HgN/A
6:00 PM1 °FPassing clouds.6 mph50%30.39 "HgN/A
5:30 PM3 °FPassing clouds.8 mph50%30.39 "HgN/A
5:00 PM3 °FPassing clouds.10 mph50%30.36 "HgN/A
4:30 PM3 °FPassing clouds.10 mph55%30.36 "HgN/A
4:00 PM3 °FPassing clouds.10 mph55%30.36 "HgN/A
3:30 PM3 °FPassing clouds.13 mph60%30.36 "HgN/A
3:00 PM3 °FSunny.13 mph60%30.36 "Hg10 mi
2:30 PM3 °FSunny.13 mph60%30.36 "Hg10 mi
2:00 PM3 °FSunny.13 mph60%30.36 "Hg10 mi
1:30 PM3 °FSunny.15 mph55%30.36 "Hg10 mi
1:00 PM3 °FSunny.13 mph60%30.36 "Hg10 mi
12:30 PM1 °FSunny.13 mph60%30.36 "Hg10 mi
12:00 PM1 °FSunny.13 mph60%30.36 "Hg10 mi
11:30 AM0 °FSunny.10 mph65%30.36 "Hg10 mi
11:00 AM-2 °FSunny.10 mph71%30.36 "Hg10 mi
10:30 AM-4 °FSunny.10 mph65%30.36 "Hg10 mi
10:00 AM-6 °FSunny.10 mph64%30.36 "Hg10 mi
9:30 AM-11 °FSunny.8 mph70%30.36 "Hg10 mi
9:00 AM-13 °FClear.8 mph69%30.33 "Hg10 mi
8:30 AM-15 °FClear.6 mph76%30.33 "Hg10 mi
8:00 AM-13 °FPassing clouds.6 mph76%30.30 "HgN/A
7:30 AM-13 °FClear.6 mph69%30.30 "Hg10 mi
7:00 AM-13 °FClear.8 mph76%30.27 "Hg10 mi
5:30 AM-9 °FClear.6 mph70%30.24 "Hg10 mi
5:00 AM-9 °FPassing clouds.8 mph70%30.24 "HgN/A
4:00 AM-6 °FClear.8 mph77%30.24 "Hg10 mi
Weather by CustomWeather, © 2016

See weather overviewHow to use our weather pages